EN

Hourly Weather Shirdi

Today, 27 November, Friday

Time Temperature Precipitation Wind Pressure Humidity
00:00 +21°C° 0 mm 2 mps 716 mmHg 54%
01:00 +21°C° 0 mm 2 mps 715 mmHg 55%
02:00 +20°C° 0 mm 2 mps 715 mmHg 56%
03:00 +20°C° 0 mm 2 mps 715 mmHg 58%
04:00 +20°C° 0 mm 2 mps 716 mmHg 59%
05:00 +19°C° 0 mm 2 mps 716 mmHg 63%
06:00 +20°C° 0 mm 2 mps 717 mmHg 61%
07:00 +21°C° 0 mm 3 mps 717 mmHg 60%
08:00 +22°C° 0 mm 3 mps 718 mmHg 58%
09:00 +25°C° 0 mm 4 mps 718 mmHg 53%
10:00 +27°C° 0 mm 5 mps 718 mmHg 48%
11:00 +29°C° 0 mm 5 mps 718 mmHg 42%
12:00 +29°C° 0 mm 6 mps 718 mmHg 40%
13:00 +30°C° 0 mm 7 mps 717 mmHg 38%
14:00 +30°C° 0 mm 7 mps 716 mmHg 36%
15:00 +29°C° 0 mm 7 mps 716 mmHg 38%
16:00 +29°C° 0 mm 6 mps 716 mmHg 40%
17:00 +27°C° 0 mm 5 mps 716 mmHg 44%
18:00 +26°C° 0 mm 5 mps 717 mmHg 46%
19:00 +25°C° 0 mm 5 mps 717 mmHg 48%
20:00 +23°C° 0 mm 5 mps 718 mmHg 51%
21:00 +22°C° 0 mm 4 mps 718 mmHg 55%
22:00 +22°C° 0 mm 4 mps 718 mmHg 58%
23:00 +21°C° 0 mm 3 mps 718 mmHg 62%

Tomorrow, 28 November, Saturday

Time Temperature Precipitation Wind Pressure Humidity
00:00 +21°C° 0 mm 3 mps 718 mmHg 66%
01:00 +20°C° 0 mm 3 mps 717 mmHg 71%
02:00 +20°C° 0 mm 3 mps 717 mmHg 75%
03:00 +20°C° 0 mm 3 mps 717 mmHg 77%
04:00 +19°C° 0 mm 3 mps 717 mmHg 80%
05:00 +19°C° 0 mm 3 mps 717 mmHg 82%
06:00 +20°C° 0 mm 4 mps 717 mmHg 77%
07:00 +21°C° 0 mm 5 mps 718 mmHg 72%
08:00 +22°C° 0 mm 6 mps 718 mmHg 66%
09:00 +23°C° 0 mm 6 mps 718 mmHg 61%
10:00 +26°C° 0 mm 7 mps 718 mmHg 55%
11:00 +27°C° 0 mm 7 mps 718 mmHg 49%
12:00 +28°C° 0 mm 7 mps 717 mmHg 48%
13:00 +29°C° 0 mm 7 mps 717 mmHg 47%
14:00 +30°C° 0 mm 7 mps 716 mmHg 46%
15:00 +29°C° 0 mm 6 mps 716 mmHg 48%
16:00 +29°C° 0 mm 5 mps 716 mmHg 51%
17:00 +28°C° 0 mm 4 mps 715 mmHg 53%
18:00 +27°C° 0 mm 4 mps 716 mmHg 55%
19:00 +27°C° 0 mm 4 mps 716 mmHg 57%
20:00 +26°C° 0 mm 4 mps 717 mmHg 59%
21:00 +26°C° 0 mm 4 mps 717 mmHg 60%
22:00 +25°C° 0 mm 5 mps 717 mmHg 61%
23:00 +25°C° 0 mm 5 mps 717 mmHg 62%

Day after tomorrow, 29 November, Sunday

Time Temperature Precipitation Wind Pressure Humidity
00:00 +25°C° 0 mm 5 mps 717 mmHg 62%
01:00 +23°C° 0 mm 4 mps 716 mmHg 61%
02:00 +23°C° 0 mm 4 mps 716 mmHg 61%
03:00 +22°C° 0 mm 4 mps 716 mmHg 63%
04:00 +22°C° 0 mm 3 mps 716 mmHg 64%
05:00 +21°C° 0 mm 3 mps 716 mmHg 66%
06:00 +22°C° 0 mm 3 mps 716 mmHg 64%
07:00 +24°C° 0 mm 3 mps 717 mmHg 62%
08:00 +23°C° 0 mm 4 mps 718 mmHg 60%
09:00 +26°C° 0 mm 4 mps 718 mmHg 56%
10:00 +28°C° 0 mm 5 mps 718 mmHg 53%
11:00 +30°C° 0 mm 5 mps 718 mmHg 49%
12:00 +30°C° 0 mm 5 mps 717 mmHg 47%
13:00 +32°C° 0 mm 5 mps 716 mmHg 46%
14:00 +33°C° 0 mm 5 mps 716 mmHg 44%
15:00 +32°C° 0 mm 4 mps 716 mmHg 46%
16:00 +30°C° 0 mm 3 mps 715 mmHg 49%
17:00 +30°C° 0 mm 2 mps 715 mmHg 52%
18:00 +29°C° 0 mm 3 mps 716 mmHg 54%
19:00 +28°C° 0 mm 3 mps 716 mmHg 57%
20:00 +27°C° 0 mm 3 mps 717 mmHg 60%
21:00 +26°C° 0 mm 3 mps 717 mmHg 60%
22:00 +26°C° 0 mm 3 mps 716 mmHg 61%
23:00 +25°C° 0 mm 2 mps 716 mmHg 62%

30 November, Monday

Time Temperature Precipitation Wind Pressure Humidity
00:00 +24°C° 0 mm 2 mps 716 mmHg 63%
01:00 +24°C° 0 mm 2 mps 716 mmHg 65%
02:00 +24°C° 0 mm 1 mps 715 mmHg 66%
03:00 +23°C° 0 mm 1 mps 715 mmHg 67%
04:00 +23°C° 0 mm 1 mps 715 mmHg 68%
05:00 +23°C° 0 mm 2 mps 715 mmHg 69%
06:00 +24°C° 0 mm 2 mps 716 mmHg 65%
07:00 +25°C° 0 mm 2 mps 717 mmHg 62%
08:00 +25°C° 0 mm 2 mps 717 mmHg 58%
09:00 +27°C° 0 mm 3 mps 717 mmHg 54%
10:00 +29°C° 0 mm 3 mps 717 mmHg 49%
11:00 +30°C° 0 mm 3 mps 717 mmHg 44%
12:00 +31°C° 0 mm 3 mps 717 mmHg 42%
13:00 +33°C° 0 mm 3 mps 716 mmHg 41%
14:00 +33°C° 0 mm 3 mps 716 mmHg 39%
15:00 +32°C° 0 mm 2 mps 716 mmHg 41%
16:00 +31°C° 0 mm 2 mps 716 mmHg 43%
17:00 +30°C° 0 mm 2 mps 715 mmHg 45%
18:00 +30°C° 0 mm 2 mps 716 mmHg 46%
19:00 +29°C° 0 mm 2 mps 716 mmHg 47%
20:00 +29°C° 0 mm 2 mps 717 mmHg 48%
21:00 +28°C° 0 mm 2 mps 717 mmHg 50%
22:00 +27°C° 0 mm 2 mps 717 mmHg 53%
23:00 +27°C° 0 mm 1 mps 716 mmHg 55%

1 December, Tuesday

Time Temperature Precipitation Wind Pressure Humidity
00:00 +26°C° 0 mm 2 mps 716 mmHg 57%
01:00 +25°C° 0 mm 2 mps 716 mmHg 59%
02:00 +25°C° 0 mm 2 mps 715 mmHg 61%
03:00 +24°C° 0 mm 2 mps 715 mmHg 63%
04:00 +24°C° 0 mm 2 mps 715 mmHg 65%
05:00 +23°C° 0 mm 2 mps 715 mmHg 67%
06:00 +24°C° 0 mm 2 mps 716 mmHg 64%
07:00 +25°C° 0 mm 2 mps 717 mmHg 61%
08:00 +26°C° 0 mm 2 mps 717 mmHg 57%
09:00 +28°C° 0 mm 3 mps 717 mmHg 53%
10:00 +29°C° 0 mm 3 mps 718 mmHg 48%
11:00 +31°C° 0 mm 3 mps 718 mmHg 43%
12:00 +31°C° 0 mm 3 mps 717 mmHg 40%
13:00 +32°C° 0 mm 2 mps 716 mmHg 37%
14:00 +34°C° 0 mm 2 mps 715 mmHg 34%
15:00 +32°C° 0 mm 2 mps 715 mmHg 36%
16:00 +32°C° 0 mm 2 mps 715 mmHg 37%
17:00 +31°C° 0 mm 2 mps 715 mmHg 39%
18:00 +30°C° 0 mm 2 mps 716 mmHg 40%
19:00 +29°C° 0 mm 3 mps 716 mmHg 41%
20:00 +28°C° 0 mm 3 mps 717 mmHg 43%
21:00 +27°C° 0 mm 3 mps 717 mmHg 44%
22:00 +26°C° 0 mm 3 mps 717 mmHg 46%
23:00 +25°C° 0 mm 3 mps 717 mmHg 48%

2 December, Wednesday

Time Temperature Precipitation Wind Pressure Humidity
00:00 +25°C° 0 mm 3 mps 716 mmHg 50%
01:00 +24°C° 0 mm 2 mps 716 mmHg 52%
02:00 +23°C° 0 mm 2 mps 715 mmHg 54%
03:00 +23°C° 0 mm 2 mps 715 mmHg 56%
04:00 +22°C° 0 mm 1 mps 715 mmHg 58%
05:00 +21°C° 0 mm 1 mps 715 mmHg 60%
06:00 +22°C° 0 mm 1 mps 716 mmHg 57%
07:00 +23°C° 0 mm 2 mps 717 mmHg 54%
08:00 +25°C° 0 mm 2 mps 717 mmHg 51%
09:00 +26°C° 0 mm 2 mps 717 mmHg 45%
10:00 +28°C° 0 mm 2 mps 717 mmHg 40%
11:00 +30°C° 0 mm 2 mps 717 mmHg 34%
12:00 +31°C° 0 mm 2 mps 717 mmHg 32%
13:00 +33°C° 0 mm 3 mps 716 mmHg 29%
14:00 +34°C° 0 mm 3 mps 715 mmHg 26%
15:00 +33°C° 0 mm 3 mps 715 mmHg 28%
16:00 +31°C° 0 mm 2 mps 715 mmHg 30%
17:00 +30°C° 0 mm 2 mps 715 mmHg 32%
18:00 +28°C° 0 mm 2 mps 715 mmHg 33%
19:00 +27°C° 0 mm 2 mps 715 mmHg 35%
20:00 +25°C° 0 mm 2 mps 715 mmHg 37%
21:00 +25°C° 0 mm 2 mps 715 mmHg 38%
22:00 +24°C° 0 mm 2 mps 715 mmHg 38%
23:00 +23°C° 0 mm 2 mps 715 mmHg 38%
Show more